Change the Weather History Date:

Thursday, November 7, 2013

  Actual Average Record
Temperature  
Mean Temperature 34 °F -  
Max Temperature 37 °F 44 °F 75 °F (1949)
Min Temperature 28 °F 26 °F -14 °F (1991)
Degree Days  
Heating Degree Days 32    
Moisture  
Dew Point 31 °F    
Average Humidity 88    
Maximum Humidity 100    
Minimum Humidity 81    
Precipitation  
Precipitation 0.00 in - - ()
Sea Level Pressure  
Sea Level Pressure 30.23 in    
Wind  
Wind Speed 10 mph (WSW)    
Max Wind Speed 20 mph    
Max Gust Speed 21 mph    
Visibility 10 miles    
Events      
Averages and records for this station are not official NWS values.
T = Trace of Precipitation, MM = Missing Value Source: NWS Daily Summary

Daily Weather History Graph

Daily Weather History Graph

Search for Another Location

Airport or City:

Trip Planner

Search our weather history database for the weather conditions in past years. The results will help you decide how hot, cold, wet, or windy it might be!

Date:

Astronomy

Nov. 07, 2013 Rise Set
Actual Time 6:59 AM CST 4:56 PM CST
Civil Twilight 6:28 AM CST 5:26 PM CST
Nautical Twilight 5:54 AM CST 6:01 PM CST
Astronomical Twilight 5:20 AM CST 6:34 PM CST
Moon 11:10 AM CST (11/7) 9:07 PM CST (11/7)
Length of Visible Light 10h 58m
Length of Day
9h 56m
Waxing Crescent, 23% of the Moon is Illuminated
Nov 7
Waxing Crescent
Nov 9
First Quarter
Nov 17
Full
Nov 25
Last Quarter
Dec 2
New

Hourly Weather History & Observations

Time (CST) Temp. Windchill Dew Point Humidity Pressure Visibility Wind Dir Wind Speed Gust Speed Precip Events Conditions
12:13 AM 32.0 °F 22.1 °F 28.4 °F 87% 30.21 in 10.0 mi West 13.8 mph - N/A   Overcast
12:34 AM 32.0 °F 23.0 °F 28.4 °F 87% 30.21 in 10.0 mi West 11.5 mph - N/A   Overcast
12:54 AM 32.0 °F 22.1 °F 30.2 °F 93% 30.21 in 10.0 mi West 13.8 mph - N/A   Overcast
1:13 AM 32.0 °F 22.1 °F 30.2 °F 93% 30.21 in 10.0 mi West 13.8 mph - N/A   Overcast
1:33 AM 32.0 °F 23.0 °F 30.2 °F 93% 30.20 in 10.0 mi WSW 11.5 mph - N/A   Overcast
1:54 AM 32.0 °F 24.8 °F 30.2 °F 93% 30.20 in 10.0 mi West 8.1 mph - N/A   Overcast
2:13 AM 32.0 °F 27.5 °F 30.2 °F 93% 30.20 in 10.0 mi West 4.6 mph - N/A   Overcast
2:33 AM 32.0 °F 27.5 °F 32.0 °F 100% 30.19 in 10.0 mi WSW 4.6 mph - N/A   Overcast
2:53 AM 33.8 °F 28.6 °F 32.0 °F 93% 30.19 in 10.0 mi SW 5.8 mph - N/A   Overcast
3:14 AM 33.8 °F 28.6 °F 32.0 °F 93% 30.19 in 10.0 mi SW 5.8 mph - N/A   Overcast
3:33 AM 33.8 °F 27.7 °F 32.0 °F 93% 30.19 in 10.0 mi WSW 6.9 mph - N/A   Overcast
3:53 AM 33.8 °F 27.0 °F 32.0 °F 93% 30.19 in 10.0 mi WSW 8.1 mph - N/A   Overcast
4:13 AM 33.8 °F 27.0 °F 32.0 °F 93% 30.19 in 10.0 mi WSW 8.1 mph - N/A   Overcast
4:33 AM 33.8 °F 27.7 °F 32.0 °F 93% 30.20 in 10.0 mi WSW 6.9 mph - N/A   Overcast
4:53 AM 33.8 °F 28.6 °F 32.0 °F 93% 30.20 in 10.0 mi WSW 5.8 mph - N/A   Overcast
5:13 AM 33.8 °F 28.6 °F 32.0 °F 93% 30.20 in 10.0 mi West 5.8 mph - N/A   Overcast
5:33 AM 33.8 °F 27.7 °F 32.0 °F 93% 30.20 in 10.0 mi West 6.9 mph - N/A   Overcast
5:54 AM 33.8 °F 27.7 °F 32.0 °F 93% 30.21 in 10.0 mi West 6.9 mph - N/A   Overcast
6:13 AM 33.8 °F 26.4 °F 32.0 °F 93% 30.22 in 10.0 mi West 9.2 mph - N/A   Overcast
6:34 AM 32.0 °F 23.6 °F 32.0 °F 100% 30.22 in 10.0 mi West 10.4 mph - N/A   Overcast
6:53 AM 32.0 °F 23.6 °F 30.2 °F 93% 30.23 in 7.0 mi WNW 10.4 mph - N/A   Overcast
7:14 AM 32.0 °F 23.6 °F 30.2 °F 93% 30.23 in 5.0 mi WNW 10.4 mph - N/A   Overcast
7:33 AM 32.0 °F 24.8 °F 30.2 °F 93% 30.23 in 4.0 mi WNW 8.1 mph - N/A   Overcast
7:53 AM 32.0 °F 26.4 °F 30.2 °F 93% 30.24 in 7.0 mi West 5.8 mph - N/A   Overcast
8:13 AM 32.0 °F 25.6 °F 30.2 °F 93% 30.24 in 7.0 mi WSW 6.9 mph - N/A   Overcast
8:34 AM 32.0 °F 24.8 °F 30.2 °F 93% 30.25 in 10.0 mi WSW 8.1 mph - N/A   Overcast
8:53 AM 32.0 °F 24.8 °F 30.2 °F 93% 30.25 in 7.0 mi WSW 8.1 mph - N/A   Mostly Cloudy
9:14 AM 33.8 °F 25.8 °F 32.0 °F 93% 30.25 in 10.0 mi WSW 10.4 mph - N/A   Mostly Cloudy
9:34 AM 33.8 °F 26.4 °F 32.0 °F 93% 30.25 in 10.0 mi WSW 9.2 mph - N/A   Overcast
9:53 AM 33.8 °F 25.8 °F 32.0 °F 93% 30.25 in 10.0 mi SW 10.4 mph - N/A   Scattered Clouds
10:14 AM 33.8 °F 24.8 °F 32.0 °F 93% 30.25 in 10.0 mi WSW 12.7 mph - N/A   Mostly Cloudy
10:33 AM 33.8 °F 24.3 °F 32.0 °F 93% 30.26 in 10.0 mi WSW 13.8 mph - N/A   Mostly Cloudy
10:54 AM 35.6 °F 26.6 °F 32.0 °F 87% 30.26 in 10.0 mi West 13.8 mph - N/A   Mostly Cloudy
11:14 AM 35.6 °F 26.6 °F 32.0 °F 87% 30.26 in 10.0 mi WSW 13.8 mph - N/A   Scattered Clouds
11:33 AM 37.4 °F 28.5 °F 33.8 °F 87% 30.26 in 10.0 mi West 15.0 mph 20.7 mph N/A   Scattered Clouds
11:54 AM 37.4 °F 28.9 °F 32.0 °F 81% 30.25 in 10.0 mi West 13.8 mph - N/A   Scattered Clouds
12:14 PM 37.4 °F 29.3 °F 32.0 °F 81% 30.25 in 10.0 mi West 12.7 mph - N/A   Clear
12:33 PM 37.4 °F 28.2 °F 32.0 °F 81% 30.25 in 10.0 mi West 16.1 mph - N/A   Clear
12:54 PM 37.4 °F 27.2 °F 32.0 °F 81% 30.25 in 10.0 mi West 19.6 mph - N/A   Clear
1:14 PM 37.4 °F 28.2 °F 32.0 °F 81% 30.25 in 10.0 mi West 16.1 mph - N/A   Scattered Clouds
1:34 PM 37.4 °F 27.5 °F 32.0 °F 81% 30.25 in 10.0 mi West 18.4 mph - N/A   Scattered Clouds
1:54 PM 37.4 °F 27.8 °F 32.0 °F 81% 30.25 in 10.0 mi West 17.3 mph - N/A   Scattered Clouds
2:13 PM 37.4 °F 28.2 °F 32.0 °F 81% 30.25 in 10.0 mi West 16.1 mph - N/A   Scattered Clouds
2:33 PM 37.4 °F 28.9 °F 32.0 °F 81% 30.24 in 10.0 mi WNW 13.8 mph - N/A   Mostly Cloudy
2:53 PM 37.4 °F 29.8 °F 32.0 °F 81% 30.24 in 10.0 mi West 11.5 mph - N/A   Scattered Clouds
3:13 PM 37.4 °F 30.3 °F 32.0 °F 81% 30.24 in 10.0 mi West 10.4 mph - N/A   Clear
3:34 PM 37.4 °F 29.8 °F 32.0 °F 81% 30.24 in 10.0 mi West 11.5 mph - N/A   Clear
3:53 PM 37.4 °F 29.3 °F 32.0 °F 81% 30.24 in 10.0 mi West 12.7 mph - N/A   Clear
4:14 PM 37.4 °F 31.4 °F 32.0 °F 81% 30.24 in 10.0 mi WSW 8.1 mph - N/A   Clear
4:33 PM 35.6 °F 29.9 °F 30.2 °F 81% 30.24 in 10.0 mi West 6.9 mph - N/A   Scattered Clouds
4:54 PM 33.8 °F 29.6 °F 28.4 °F 81% 30.24 in 10.0 mi WSW 4.6 mph - N/A   Clear
5:14 PM 33.8 °F 30.8 °F 28.4 °F 81% 30.23 in 10.0 mi SW 3.5 mph - N/A   Clear
5:33 PM 33.8 °F 30.8 °F 28.4 °F 81% 30.23 in 10.0 mi SSW 3.5 mph - N/A   Clear
5:53 PM 33.8 °F 30.8 °F 28.4 °F 81% 30.24 in 10.0 mi SSW 3.5 mph - N/A   Clear
6:14 PM 33.8 °F 29.6 °F 30.2 °F 87% 30.23 in 10.0 mi SSW 4.6 mph - N/A   Mostly Cloudy
6:33 PM 33.8 °F 28.6 °F 30.2 °F 87% 30.23 in 10.0 mi SSW 5.8 mph - N/A   Overcast
6:54 PM 33.8 °F 28.6 °F 30.2 °F 87% 30.23 in 10.0 mi SSW 5.8 mph - N/A   Overcast
7:14 PM 33.8 °F 27.7 °F 30.2 °F 87% 30.23 in 10.0 mi SSW 6.9 mph - N/A   Scattered Clouds
7:33 PM 33.8 °F 27.0 °F 30.2 °F 87% 30.22 in 10.0 mi SSW 8.1 mph - N/A   Clear
7:53 PM 33.8 °F 27.0 °F 30.2 °F 87% 30.23 in 10.0 mi SW 8.1 mph - N/A   Clear
8:14 PM 33.8 °F 27.7 °F 30.2 °F 87% 30.22 in 10.0 mi SW 6.9 mph - N/A   Clear
8:33 PM 32.0 °F 25.6 °F 30.2 °F 93% 30.23 in 10.0 mi SW 6.9 mph - N/A   Scattered Clouds
8:54 PM 33.8 °F 26.4 °F 30.2 °F 87% 30.23 in 10.0 mi SW 9.2 mph - N/A   Mostly Cloudy
9:13 PM 33.8 °F 27.7 °F 30.2 °F 87% 30.23 in 10.0 mi SW 6.9 mph - N/A   Scattered Clouds
9:34 PM 33.8 °F 27.0 °F 30.2 °F 87% 30.23 in 10.0 mi WSW 8.1 mph - N/A   Clear
9:53 PM 33.8 °F 27.0 °F 30.2 °F 87% 30.23 in 10.0 mi SW 8.1 mph - N/A   Clear
10:14 PM 32.0 °F 26.4 °F 28.4 °F 87% 30.23 in 10.0 mi SW 5.8 mph - N/A   Clear
10:34 PM 32.0 °F 28.7 °F 28.4 °F 87% 30.23 in 10.0 mi WSW 3.5 mph - N/A   Clear
10:53 PM 30.2 °F - 26.6 °F 86% 30.23 in 10.0 mi Calm Calm - N/A   Clear
11:13 PM 32.0 °F 28.7 °F 28.4 °F 87% 30.23 in 10.0 mi SW 3.5 mph - N/A   Clear
11:34 PM 30.2 °F 26.7 °F 28.4 °F 93% 30.22 in 10.0 mi SW 3.5 mph - N/A   Clear
11:53 PM 28.4 °F 23.3 °F 26.6 °F 93% 30.22 in 10.0 mi SSW 4.6 mph - N/A   Clear